,,,PA_Meas_PMT16A,,PR_Meas_QMR101_102,,RH_Meas_QMH101,,SR_Meas_QMS101,,TA_Meas_QMH101,,GenWind,,GenWind,
date,time,status,PA,status,PR,status,RH,status,SR,status,TA,status,DirAvg,status,SpdAvg,
2014-10-20, 00:00:04,VALID,1010.12,VALID,0,INVALID,117.437,VALID,0,VALID,24.0058,VALID,338,VALID,0,
2014-10-20, 00:01:04,VALID,1010.1,VALID,0,INVALID,116.659,VALID,0,VALID,24.0058,VALID,338,VALID,0,
2014-10-20, 00:02:04,VALID,1010.09,VALID,0,INVALID,116.483,VALID,0.112112,VALID,24.0253,VALID,338,VALID,0,
2014-10-20, 00:03:04,VALID,1010.01,VALID,0,INVALID,116.964,VALID,0,VALID,24.0058,VALID,338,VALID,0,
2014-10-20, 00:04:04,VALID,1009.98,VALID,0,INVALID,117.513,VALID,0,VALID,24.0448,VALID,338,VALID,0,
2014-10-20, 00:05:04,VALID,1009.93,VALID,0,INVALID,116.133,VALID,0,VALID,24.0058,VALID,338,VALID,0,
2014-10-20, 00:06:04,VALID,1009.87,VALID,0,INVALID,115.362,VALID,0,VALID,23.9863,VALID,338,VALID,0.216797,
2014-10-20, 00:07:04,VALID,1009.78,VALID,0,INVALID,116.491,VALID,0,VALID,23.9863,VALID,338,VALID,0.601953,
2014-10-20, 00:08:04,VALID,1009.77,VALID,0,INVALID,118.558,VALID,0,VALID,24.0058,VALID,338,VALID,0.525391,
2014-10-20, 00:09:04,VALID,1009.69,VALID,0,INVALID,119.679,VALID,0,VALID,23.9845,VALID,338,VALID,0.335156,
2014-10-20, 00:10:04,VALID,1009.62,VALID,0,INVALID,120.441,VALID,0,VALID,24.004,VALID,338,VALID,0.235156,
2014-10-20, 00:11:04,VALID,1009.54,VALID,0,INVALID,120.899,VALID,0.112112,VALID,24.0253,VALID,338,VALID,0.23125,
2014-10-20, 00:12:04,VALID,1009.51,VALID,0,INVALID,121.494,VALID,0,VALID,24.004,VALID,338,VALID,0.178516,
2014-10-20, 00:13:04,VALID,1009.48,VALID,0,INVALID,121.555,VALID,0,VALID,24.0253,VALID,338,VALID,0.0339844,
2014-10-20, 00:14:04,VALID,1009.44,VALID,0,INVALID,121.364,VALID,0,VALID,24.0253,VALID,338,VALID,0,
2014-10-20, 00:15:04,VALID,1009.39,VALID,0,INVALID,121.394,VALID,0.112112,VALID,24.0448,VALID,338,VALID,0,
2014-10-20, 00:16:04,VALID,1009.38,VALID,0,INVALID,122.111,VALID,0,VALID,24.0837,VALID,338,VALID,0.344531,
2014-10-20, 00:17:04,VALID,1009.39,VALID,0,INVALID,122.698,VALID,0,VALID,24.1422,VALID,338,VALID,0.479688,
2014-10-20, 00:18:04,VALID,1009.39,VALID,0,INVALID,122.401,VALID,0.112112,VALID,24.1812,VALID,338,VALID,0.394922,
2014-10-20, 00:19:04,VALID,1009.39,VALID,0,INVALID,121.12,VALID,0,VALID,24.2202,VALID,338,VALID,0.343359,
2014-10-20, 00:20:04,VALID,1009.45,VALID,0,INVALID,119.427,VALID,0.112112,VALID,24.2183,VALID,338,VALID,0.511719,
2014-10-20, 00:21:04,VALID,1009.45,VALID,0,INVALID,117.269,VALID,0.112112,VALID,24.3176,VALID,338,VALID,0.557813,
2014-10-20, 00:22:04,VALID,1009.43,VALID,0,INVALID,114.447,VALID,0.112112,VALID,24.3352,VALID,338,VALID,0.325,
2014-10-20, 00:23:04,VALID,1009.44,VALID,0,INVALID,110.505,VALID,0,VALID,24.3352,VALID,338,VALID,0,
2014-10-20, 00:24:04,VALID,1009.37,VALID,0,VALID,104,VALID,0,VALID,24.3176,VALID,338,VALID,0.124219,
2014-10-20, 00:25:04,VALID,1009.35,VALID,0,VALID,102.742,VALID,0,VALID,24.3176,VALID,338,VALID,0,
2014-10-20, 00:26:04,VALID,1009.33,VALID,0,VALID,102.277,VALID,0.112112,VALID,24.3176,VALID,338,VALID,0.302734,
2014-10-20, 00:27:04,VALID,1009.36,VALID,0,VALID,102.551,VALID,0.112112,VALID,24.2768,VALID,338,VALID,0.148438,
2014-10-20, 00:28:04,VALID,1009.39,VALID,0,VALID,102.528,VALID,0,VALID,24.2786,VALID,338,VALID,0.0957031,
2014-10-20, 00:29:04,VALID,1009.4,VALID,0,VALID,101.926,VALID,0,VALID,24.2591,VALID,338,VALID,0.130078,
2014-10-20, 00:30:04,VALID,1009.44,VALID,0,VALID,101.262,VALID,0,VALID,24.2202,VALID,338,VALID,0.229297,
2014-10-20, 00:31:04,VALID,1009.44,VALID,0,VALID,101.476,VALID,0,VALID,24.1812,VALID,338,VALID,0.219141,
2014-10-20, 00:32:04,VALID,1009.43,VALID,0,VALID,102.299,VALID,0,VALID,24.1422,VALID,338,VALID,0.295703,
2014-10-20, 00:33:04,VALID,1009.4,VALID,0,VALID,103.855,VALID,0,VALID,24.0837,VALID,338,VALID,0.512109,
2014-10-20, 00:34:04,VALID,1009.42,VALID,0,VALID,104,VALID,0,VALID,24.0643,VALID,338,VALID,0.446094,
2014-10-20, 00:35:04,VALID,1009.42,VALID,0,INVALID,111.023,VALID,0,VALID,24.0253,VALID,338,VALID,0.332422,
2014-10-20, 00:36:04,VALID,1009.46,VALID,0,INVALID,113.532,VALID,0,VALID,23.9863,VALID,338,VALID,0.19375,
2014-10-20, 00:37:04,VALID,1009.46,VALID,0,INVALID,114.173,VALID,0,VALID,23.9473,VALID,338,VALID,0.157031,
2014-10-20, 00:38:04,VALID,1009.49,VALID,0,INVALID,114.79,VALID,0,VALID,23.9278,VALID,338,VALID,0.260547,
2014-10-20, 00:39:04,VALID,1009.49,VALID,0,INVALID,116.232,VALID,0,VALID,23.9102,VALID,338,VALID,0.301172,
2014-10-20, 00:40:04,VALID,1009.54,VALID,0,INVALID,117.345,VALID,0,VALID,23.8694,VALID,338,VALID,0,
2014-10-20, 00:41:04,VALID,1009.53,VALID,0,INVALID,118.253,VALID,0,VALID,23.8499,VALID,338,VALID,0,
2014-10-20, 00:42:04,VALID,1009.53,VALID,0,INVALID,119.32,VALID,0,VALID,23.8091,VALID,338,VALID,0,
2014-10-20, 00:43:04,VALID,1009.5,VALID,0,INVALID,120.098,VALID,0,VALID,23.7896,VALID,338,VALID,0,
2014-10-20, 00:44:04,VALID,1009.49,VALID,0,INVALID,121.089,VALID,0,VALID,23.8109,VALID,338,VALID,0,
2014-10-20, 00:45:04,VALID,1009.45,VALID,0,INVALID,122.043,VALID,0,VALID,23.7914,VALID,338,VALID,0,
2014-10-20, 00:46:04,VALID,1009.46,VALID,0,INVALID,123.186,VALID,0,VALID,23.7914,VALID,338,VALID,0,
2014-10-20, 00:47:04,VALID,1009.42,VALID,0,INVALID,124.475,VALID,0,VALID,23.772,VALID,338,VALID,0,
2014-10-20, 00:48:04,VALID,1009.41,VALID,0,INVALID,125.512,VALID,0,VALID,23.8127,VALID,338,VALID,0.103516,
2014-10-20, 00:49:04,VALID,1009.4,VALID,0,INVALID,126.504,VALID,0,VALID,23.7507,VALID,338,VALID,0.266406,
2014-10-20, 00:50:04,VALID,1009.4,VALID,0,INVALID,127.335,VALID,0,VALID,23.772,VALID,338,VALID,0.191797,
2014-10-20, 00:51:04,VALID,1009.37,VALID,0,INVALID,128.494,VALID,0,VALID,23.7507,VALID,338,VALID,0.0707031,
2014-10-20, 00:52:04,VALID,1009.38,VALID,0,INVALID,128.936,VALID,0,VALID,23.772,VALID,338,VALID,0.251563,
2014-10-20, 00:53:04,VALID,1009.38,VALID,0,INVALID,129.745,VALID,0,VALID,23.7914,VALID,338,VALID,0.260156,
2014-10-20, 00:54:04,VALID,1009.31,VALID,0,INVALID,130.629,VALID,0,VALID,23.8499,VALID,338,VALID,0.0617188,
2014-10-20, 00:55:04,VALID,1009.3,VALID,0,INVALID,131.415,VALID,0,VALID,23.8694,VALID,338,VALID,0.359766,
2014-10-20, 00:56:04,VALID,1009.28,VALID,0,INVALID,131.087,VALID,0,VALID,23.8889,VALID,338,VALID,0.223828,
2014-10-20, 00:57:04,VALID,1009.26,VALID,0,INVALID,131.056,VALID,0,VALID,23.8694,VALID,338,VALID,0,
2014-10-20, 00:58:04,VALID,1009.22,VALID,0,INVALID,130.972,VALID,0,VALID,23.8889,VALID,338,VALID,0.00351562,
2014-10-20, 00:59:04,VALID,1009.21,VALID,0,INVALID,130.423,VALID,0,VALID,23.9084,VALID,338,VALID,0.405859,
2014-10-20, 01:00:04,VALID,1009.21,VALID,0,INVALID,129.821,VALID,0,VALID,23.8889,VALID,338,VALID,0.535937,
2014-10-20, 01:01:04,VALID,1009.17,VALID,0,INVALID,128.799,VALID,0,VALID,23.8889,VALID,338,VALID,0.399609,
2014-10-20, 01:02:04,VALID,1009.15,VALID,0,INVALID,128.73,VALID,0,VALID,23.8481,VALID,338,VALID,0.730078,
2014-10-20, 01:03:04,VALID,1009.15,VALID,0,INVALID,128.364,VALID,0.112112,VALID,23.8694,VALID,338,VALID,0.521875,
2014-10-20, 01:04:04,VALID,1009.17,VALID,0,INVALID,128.014,VALID,0,VALID,23.8499,VALID,338,VALID,0.589063,
2014-10-20, 01:05:04,VALID,1009.2,VALID,0,INVALID,127.541,VALID,0,VALID,23.8304,VALID,338,VALID,0.389453,
2014-10-20, 01:06:04,VALID,1009.22,VALID,0,INVALID,127.464,VALID,0,VALID,23.8109,VALID,338,VALID,0.307031,
2014-10-20, 01:07:04,VALID,1009.29,VALID,0,INVALID,127.724,VALID,0,VALID,23.8109,VALID,338,VALID,0.183203,
2014-10-20, 01:08:04,VALID,1009.26,VALID,0,INVALID,127.777,VALID,0,VALID,23.7896,VALID,338,VALID,0.195703,
2014-10-20, 01:09:04,VALID,1009.31,VALID,0,INVALID,127.823,VALID,0,VALID,23.7914,VALID,338,VALID,0.280469,
2014-10-20, 01:10:04,VALID,1009.32,VALID,0,INVALID,128.219,VALID,0,VALID,23.7914,VALID,338,VALID,0.450391,
2014-10-20, 01:11:04,VALID,1009.35,VALID,0,INVALID,129.081,VALID,0,VALID,23.7914,VALID,338,VALID,0.213281,
2014-10-20, 01:12:04,VALID,1009.36,VALID,0,INVALID,129.112,VALID,0,VALID,23.7701,VALID,338,VALID,0.348437,
2014-10-20, 01:13:04,VALID,1009.37,VALID,0,INVALID,129.363,VALID,0,VALID,23.772,VALID,338,VALID,0.466406,
2014-10-20, 01:14:04,VALID,1009.42,VALID,0,INVALID,129.996,VALID,0,VALID,23.772,VALID,338,VALID,0.410156,
2014-10-20, 01:15:04,VALID,1009.45,VALID,0,INVALID,130.721,VALID,0,VALID,23.8322,VALID,338,VALID,0.197266,
2014-10-20, 01:16:04,VALID,1009.49,VALID,0,INVALID,131.056,VALID,0,VALID,23.8304,VALID,338,VALID,0.109766,
2014-10-20, 01:17:04,VALID,1009.47,VALID,0,INVALID,131.437,VALID,0,VALID,23.8304,VALID,338,VALID,0.226172,
2014-10-20, 01:18:04,VALID,1009.43,VALID,0,INVALID,131.506,VALID,0,VALID,23.8499,VALID,338,VALID,0.458203,
2014-10-20, 01:19:04,VALID,1009.41,VALID,0,INVALID,131.529,VALID,0,VALID,23.8694,VALID,338,VALID,0.340234,
2014-10-20, 01:20:04,VALID,1009.35,VALID,0,INVALID,131.163,VALID,0,VALID,23.8499,VALID,338,VALID,0.357422,
2014-10-20, 01:21:04,VALID,1009.33,VALID,0,INVALID,130.736,VALID,0,VALID,23.8286,VALID,338,VALID,0.5125,
2014-10-20, 01:22:04,VALID,1009.3,VALID,0,INVALID,130.591,VALID,0,VALID,23.8499,VALID,338,VALID,0.292969,
2014-10-20, 01:23:04,VALID,1009.29,VALID,0,INVALID,130.805,VALID,0,VALID,23.8499,VALID,338,VALID,0.708203,
2014-10-20, 01:24:04,VALID,1009.28,VALID,0,INVALID,130.576,VALID,0,VALID,23.8499,VALID,338,VALID,0.25,
2014-10-20, 01:25:04,VALID,1009.26,VALID,0,INVALID,130.263,VALID,0,VALID,23.8499,VALID,338,VALID,0.749609,
2014-10-20, 01:26:04,VALID,1009.24,VALID,0,INVALID,130.332,VALID,0,VALID,23.8889,VALID,338,VALID,0.405469,
2014-10-20, 01:27:04,VALID,1009.23,VALID,0,INVALID,130.21,VALID,0,VALID,23.8481,VALID,338,VALID,0,
2014-10-20, 01:28:04,VALID,1009.28,VALID,0,INVALID,129.95,VALID,0,VALID,23.8481,VALID,338,VALID,0.364062,
2014-10-20, 01:29:04,VALID,1009.27,VALID,0,INVALID,129.859,VALID,0,VALID,23.8694,VALID,338,VALID,0.235547,
2014-10-20, 01:30:04,VALID,1009.3,VALID,0,INVALID,129.828,VALID,0,VALID,23.8889,VALID,338,VALID,0.516797,
2014-10-20, 01:31:04,VALID,1009.3,VALID,0,INVALID,129.76,VALID,0,VALID,23.8676,VALID,338,VALID,0,
2014-10-20, 01:32:04,VALID,1009.31,VALID,0,INVALID,129.867,VALID,0,VALID,23.8676,VALID,338,VALID,0.350391,
2014-10-20, 01:33:04,VALID,1009.3,VALID,0,INVALID,130.164,VALID,0,VALID,23.9084,VALID,338,VALID,0.200391,
2014-10-20, 01:34:04,VALID,1009.24,VALID,0,INVALID,130.088,VALID,0,VALID,23.9473,VALID,338,VALID,0,
2014-10-20, 01:35:04,VALID,1009.21,VALID,0,INVALID,129.943,VALID,0,VALID,23.9473,VALID,338,VALID,0,
2014-10-20, 01:36:04,VALID,1009.14,VALID,0,INVALID,129.981,VALID,0,VALID,23.965,VALID,338,VALID,0,
2014-10-20, 01:37:04,VALID,1009.1,VALID,0,INVALID,130.08,VALID,0,VALID,23.9863,VALID,338,VALID,0.591797,
2014-10-20, 01:38:04,VALID,1009.05,VALID,0,INVALID,130.095,VALID,0,VALID,23.9845,VALID,338,VALID,0.332031,
2014-10-20, 01:39:04,VALID,1009.01,VALID,0,INVALID,129.531,VALID,0,VALID,24.0253,VALID,338,VALID,0.721094,
2014-10-20, 01:40:04,VALID,1008.97,VALID,0,INVALID,128.54,VALID,0,VALID,24.004,VALID,338,VALID,0.430469,
2014-10-20, 01:41:04,VALID,1008.95,VALID,0,INVALID,127.846,VALID,0,VALID,24.0253,VALID,338,VALID,0.642578,
2014-10-20, 01:42:04,VALID,1008.9,VALID,0,INVALID,126.824,VALID,0,VALID,24.0253,VALID,338,VALID,0.366016,
2014-10-20, 01:43:04,VALID,1008.88,VALID,0,INVALID,125.833,VALID,0,VALID,24.0253,VALID,338,VALID,0.441016,
2014-10-20, 01:44:04,VALID,1008.85,VALID,0,INVALID,124.948,VALID,0,VALID,24.0058,VALID,338,VALID,0.308203,
2014-10-20, 01:45:04,VALID,1008.87,VALID,0,INVALID,124.208,VALID,0,VALID,23.9863,VALID,338,VALID,0.625781,
2014-10-20, 01:46:04,VALID,1008.81,VALID,0,INVALID,123.972,VALID,0,VALID,23.9668,VALID,338,VALID,0.155078,
2014-10-20, 01:47:04,VALID,1008.79,VALID,0,INVALID,123.682,VALID,0,VALID,23.9278,VALID,338,VALID,0.228516,
2014-10-20, 01:48:04,VALID,1008.75,VALID,0,INVALID,123.735,VALID,0,VALID,23.9084,VALID,338,VALID,0.0605469,
2014-10-20, 01:49:04,VALID,1008.72,VALID,0,INVALID,125.642,VALID,0,VALID,23.9278,VALID,338,VALID,0.311328,
2014-10-20, 01:50:04,VALID,1008.67,VALID,0,INVALID,126.153,VALID,0,VALID,23.9084,VALID,338,VALID,0.266016,
2014-10-20, 01:51:04,VALID,1008.61,VALID,0,INVALID,126.496,VALID,0,VALID,23.9084,VALID,338,VALID,0.421875,
2014-10-20, 01:52:04,VALID,1008.61,VALID,0,INVALID,127.083,VALID,0,VALID,23.9084,VALID,338,VALID,0.344141,
2014-10-20, 01:53:04,VALID,1008.57,VALID,0,INVALID,127.312,VALID,0,VALID,23.8694,VALID,338,VALID,0.414063,
2014-10-20, 01:54:04,VALID,1008.49,VALID,0,INVALID,129.188,VALID,0,VALID,23.9084,VALID,338,VALID,0.334766,
2014-10-20, 01:55:04,VALID,1008.49,VALID,0,INVALID,129.028,VALID,0,VALID,23.8889,VALID,338,VALID,0.3875,
2014-10-20, 01:56:04,VALID,1008.49,VALID,0,INVALID,129.684,VALID,0,VALID,23.8889,VALID,338,VALID,0.367578,
2014-10-20, 01:57:04,VALID,1008.49,VALID,0,INVALID,130.187,VALID,0,VALID,23.9084,VALID,338,VALID,0.289844,
2014-10-20, 01:58:04,VALID,1008.53,VALID,0,INVALID,130.995,VALID,0,VALID,23.9278,VALID,338,VALID,0.738672,
2014-10-20, 01:59:04,VALID,1008.52,VALID,0,INVALID,131.59,VALID,0,VALID,23.9668,VALID,338,VALID,0.619922,
2014-10-20, 02:00:04,VALID,1008.54,VALID,0,INVALID,131.117,VALID,0,VALID,23.9278,VALID,338,VALID,0.171094,
2014-10-20, 02:01:04,VALID,1008.53,VALID,0,INVALID,130.812,VALID,0,VALID,23.9278,VALID,338,VALID,0.311719,
2014-10-20, 02:02:04,VALID,1008.53,VALID,0,INVALID,130.957,VALID,0,VALID,23.926,VALID,338,VALID,0.512891,
2014-10-20, 02:03:04,VALID,1008.53,VALID,0,INVALID,131.323,VALID,0,VALID,23.9278,VALID,338,VALID,0.36875,
2014-10-20, 02:04:04,VALID,1008.54,VALID,0,INVALID,131.605,VALID,0,VALID,23.9473,VALID,338,VALID,0.510547,
2014-10-20, 02:05:04,VALID,1008.57,VALID,0,INVALID,132.002,VALID,0,VALID,23.9668,VALID,338,VALID,0.629687,
2014-10-20, 02:06:04,VALID,1008.61,VALID,0,INVALID,133.123,VALID,0,VALID,23.9863,VALID,338,VALID,0.244531,
2014-10-20, 02:07:04,VALID,1008.65,VALID,0,INVALID,132.841,VALID,0,VALID,24.0058,VALID,338,VALID,0.292969,
2014-10-20, 02:08:04,VALID,1008.69,VALID,0,INVALID,132.627,VALID,0,VALID,24.0058,VALID,338,VALID,0.175781,
2014-10-20, 02:09:04,VALID,1008.7,VALID,0,INVALID,132.642,VALID,0,VALID,23.9845,VALID,338,VALID,0.554297,
2014-10-20, 02:10:04,VALID,1008.72,VALID,0,INVALID,132.406,VALID,0,VALID,24.0253,VALID,338,VALID,0.298047,
2014-10-20, 02:11:04,VALID,1008.71,VALID,0,INVALID,132.223,VALID,0,VALID,24.0253,VALID,338,VALID,0.308984,
2014-10-20, 02:12:04,VALID,1008.7,VALID,0,INVALID,132.063,VALID,0,VALID,24.0235,VALID,338,VALID,0.103516,
2014-10-20, 02:13:04,VALID,1008.68,VALID,0,INVALID,132.025,VALID,0,VALID,24.0448,VALID,338,VALID,0.280859,
2014-10-20, 02:14:04,VALID,1008.64,VALID,0,INVALID,132.017,VALID,0,VALID,24.0253,VALID,338,VALID,0.00585938,
2014-10-20, 02:15:04,VALID,1008.62,VALID,0,INVALID,131.727,VALID,0,VALID,24.0253,VALID,338,VALID,0,
2014-10-20, 02:16:04,VALID,1008.63,VALID,0,INVALID,131.758,VALID,0,VALID,24.0253,VALID,338,VALID,0.105859,
2014-10-20, 02:17:04,VALID,1008.62,VALID,0,INVALID,131.643,VALID,0,VALID,24.0058,VALID,338,VALID,0.198828,
2014-10-20, 02:18:04,VALID,1008.62,VALID,0,INVALID,132.086,VALID,0,VALID,24.0253,VALID,338,VALID,0.221875,
2014-10-20, 02:19:04,VALID,1008.62,VALID,0,INVALID,132.581,VALID,0,VALID,24.0448,VALID,338,VALID,0.698047,
2014-10-20, 02:20:04,VALID,1008.62,VALID,0,INVALID,133.13,VALID,0,VALID,24.0448,VALID,338,VALID,0.707422,
2014-10-20, 02:21:04,VALID,1008.61,VALID,0,INVALID,133.161,VALID,0,VALID,24.0837,VALID,338,VALID,0.103906,
2014-10-20, 02:22:04,VALID,1008.64,VALID,0,INVALID,132.955,VALID,0,VALID,24.1051,VALID,338,VALID,0.3875,
2014-10-20, 02:23:04,VALID,1008.66,VALID,0,INVALID,133.321,VALID,0,VALID,24.0837,VALID,338,VALID,0.187891,
2014-10-20, 02:24:04,VALID,1008.66,VALID,0,INVALID,133.336,VALID,0,VALID,24.1032,VALID,338,VALID,0.896484,
2014-10-20, 02:25:04,VALID,1008.65,VALID,0,INVALID,133.13,VALID,0,VALID,24.1032,VALID,338,VALID,0.290234,
2014-10-20, 02:26:04,VALID,1008.64,VALID,0,INVALID,132.795,VALID,0,VALID,24.1032,VALID,338,VALID,0.116406,
2014-10-20, 02:27:04,VALID,1008.59,VALID,0,INVALID,132.436,VALID,0,VALID,24.1032,VALID,338,VALID,0.596094,
2014-10-20, 02:28:04,VALID,1008.58,VALID,0,INVALID,132.292,VALID,0,VALID,24.0624,VALID,338,VALID,0.164453,
2014-10-20, 02:29:04,VALID,1008.55,VALID,0,INVALID,132.459,VALID,0,VALID,24.0837,VALID,338,VALID,0.383984,
2014-10-20, 02:30:04,VALID,1008.51,VALID,0,INVALID,132.711,VALID,0,VALID,24.0837,VALID,338,VALID,0.587109,
2014-10-20, 02:31:04,VALID,1008.47,VALID,0,INVALID,132.94,VALID,0,VALID,24.0837,VALID,338,VALID,0.512891,
2014-10-20, 02:32:04,VALID,1008.42,VALID,0,INVALID,132.658,VALID,0,VALID,24.1032,VALID,338,VALID,0.508594,
2014-10-20, 02:33:04,VALID,1008.4,VALID,0,INVALID,132.505,VALID,0,VALID,24.1014,VALID,338,VALID,0.220313,
2014-10-20, 02:34:04,VALID,1008.35,VALID,0,INVALID,132.398,VALID,0,VALID,24.1227,VALID,338,VALID,0.1375,
2014-10-20, 02:35:04,VALID,1008.34,VALID,0,INVALID,131.979,VALID,0,VALID,24.1227,VALID,338,VALID,0.245703,
2014-10-20, 02:36:04,VALID,1008.29,VALID,0,INVALID,131.59,VALID,0,VALID,24.1032,VALID,338,VALID,0.358984,
2014-10-20, 02:37:04,VALID,1008.28,VALID,0,INVALID,130.759,VALID,0,VALID,24.0837,VALID,338,VALID,0.512109,
2014-10-20, 02:38:04,VALID,1008.28,VALID,0,INVALID,130.294,VALID,0,VALID,24.0643,VALID,338,VALID,0.564062,
2014-10-20, 02:39:04,VALID,1008.25,VALID,0,INVALID,130.522,VALID,0,VALID,24.0429,VALID,338,VALID,0.392188,
2014-10-20, 02:40:04,VALID,1008.25,VALID,0,INVALID,130.652,VALID,0,VALID,24.0253,VALID,338,VALID,0.410937,
2014-10-20, 02:41:04,VALID,1008.23,VALID,0,INVALID,131.11,VALID,0,VALID,24.0058,VALID,338,VALID,0.442969,
2014-10-20, 02:42:04,VALID,1008.23,VALID,0,INVALID,131.659,VALID,0,VALID,24.0058,VALID,338,VALID,0.521094,
2014-10-20, 02:43:04,VALID,1008.23,VALID,0,INVALID,132.238,VALID,0,VALID,24.0058,VALID,338,VALID,0.449219,
2014-10-20, 02:44:04,VALID,1008.26,VALID,0,INVALID,132.497,VALID,0,VALID,24.0058,VALID,338,VALID,0.38125,
2014-10-20, 02:45:04,VALID,1008.26,VALID,0,INVALID,132.703,VALID,0,VALID,23.9863,VALID,338,VALID,0.01875,
2014-10-20, 02:46:04,VALID,1008.26,VALID,0,INVALID,132.902,VALID,0,VALID,23.9668,VALID,338,VALID,0,
2014-10-20, 02:47:04,VALID,1008.28,VALID,0,INVALID,132.917,VALID,0,VALID,23.9668,VALID,338,VALID,0,
2014-10-20, 02:48:04,VALID,1008.32,VALID,0,INVALID,133.024,VALID,0,VALID,23.9473,VALID,338,VALID,0,
2014-10-20, 02:49:04,VALID,1008.35,VALID,0,INVALID,133.618,VALID,0,VALID,23.9473,VALID,338,VALID,0.232422,
2014-10-20, 02:50:04,VALID,1008.41,VALID,0,INVALID,133.588,VALID,0,VALID,23.9863,VALID,338,VALID,0.0308594,
2014-10-20, 02:51:04,VALID,1008.43,VALID,0,INVALID,134.061,VALID,0,VALID,24.0058,VALID,338,VALID,0.406641,
2014-10-20, 02:52:04,VALID,1008.46,VALID,0,INVALID,134.389,VALID,0,VALID,24.0448,VALID,338,VALID,0.377734,
2014-10-20, 02:53:04,VALID,1008.49,VALID,0,INVALID,134.473,VALID,0,VALID,24.0448,VALID,338,VALID,0.221094,
2014-10-20, 02:54:04,VALID,1008.53,VALID,0,INVALID,134.427,VALID,0,VALID,24.0643,VALID,338,VALID,0,
2014-10-20, 02:55:04,VALID,1008.58,VALID,0,INVALID,134.328,VALID,0,VALID,24.0643,VALID,338,VALID,0,
2014-10-20, 02:56:04,VALID,1008.61,VALID,0,INVALID,134.16,VALID,0,VALID,24.0448,VALID,338,VALID,0,
2014-10-20, 02:57:04,VALID,1008.61,VALID,0,INVALID,134.03,VALID,0,VALID,24.0448,VALID,338,VALID,0.166406,
2014-10-20, 02:58:04,VALID,1008.62,VALID,0,INVALID,134.03,VALID,0,VALID,24.0643,VALID,338,VALID,0.208984,
2014-10-20, 02:59:04,VALID,1008.66,VALID,0,INVALID,133.794,VALID,0,VALID,24.0253,VALID,338,VALID,0.392969,
2014-10-20, 03:00:04,VALID,1008.67,VALID,0,INVALID,133.832,VALID,0,VALID,24.0448,VALID,338,VALID,0.351563,
2014-10-20, 03:01:04,VALID,1008.71,VALID,0,INVALID,133.138,VALID,0,VALID,24.0058,VALID,338,VALID,0.44375,
2014-10-20, 03:02:04,VALID,1008.75,VALID,0,INVALID,132.993,VALID,0,VALID,23.965,VALID,338,VALID,0.562109,
2014-10-20, 03:03:04,VALID,1008.79,VALID,0,INVALID,133.237,VALID,0,VALID,23.9863,VALID,338,VALID,0.424219,
2014-10-20, 03:04:04,VALID,1008.89,VALID,0,INVALID,133.603,VALID,0,VALID,23.9668,VALID,338,VALID,0.574609,
2014-10-20, 03:05:04,VALID,1008.92,VALID,0,INVALID,134.305,VALID,0,VALID,23.9863,VALID,338,VALID,0.623828,
2014-10-20, 03:06:04,VALID,1009.03,VALID,0,INVALID,134.93,VALID,0,VALID,23.9863,VALID,338,VALID,0.688281,
2014-10-20, 03:07:04,VALID,1009.1,VALID,0,INVALID,135.327,VALID,0,VALID,23.9845,VALID,338,VALID,0.792578,
2014-10-20, 03:08:04,VALID,1009.15,VALID,0,INVALID,135.548,VALID,0,VALID,24.0448,VALID,338,VALID,0.823828,
2014-10-20, 03:09:04,VALID,1009.21,VALID,0,INVALID,135.662,VALID,0,VALID,24.0643,VALID,338,VALID,0.538672,
2014-10-20, 03:10:04,VALID,1009.18,VALID,0,INVALID,135.761,VALID,0,VALID,24.0643,VALID,338,VALID,0.428125,
2014-10-20, 03:11:04,VALID,1009.18,VALID,0,INVALID,135.67,VALID,0,VALID,24.0643,VALID,338,VALID,0.0609375,
2014-10-20, 03:12:04,VALID,1009.07,VALID,0,INVALID,135.693,VALID,0,VALID,24.0448,VALID,338,VALID,0.336328,
2014-10-20, 03:13:04,VALID,1008.97,VALID,0,INVALID,135.647,VALID,0,VALID,24.0253,VALID,338,VALID,0.376172,
2014-10-20, 03:14:04,VALID,1008.87,VALID,0,INVALID,135.555,VALID,0,VALID,24.0253,VALID,338,VALID,0.355469,
2014-10-20, 03:15:04,VALID,1008.73,VALID,0,INVALID,135.449,VALID,0,VALID,24.0058,VALID,338,VALID,0.489062,
2014-10-20, 03:16:04,VALID,1008.63,VALID,0,INVALID,135.395,VALID,0,VALID,24.0058,VALID,338,VALID,0.409766,
2014-10-20, 03:17:04,VALID,1008.6,VALID,0,INVALID,135.189,VALID,0,VALID,23.965,VALID,338,VALID,0.638281,
2014-10-20, 03:18:04,VALID,1008.57,VALID,0,INVALID,135.266,VALID,0,VALID,23.9881,VALID,338,VALID,0.242188,
2014-10-20, 03:19:04,VALID,1008.62,VALID,0,INVALID,135.456,VALID,0,VALID,23.926,VALID,338,VALID,0.260938,
2014-10-20, 03:20:04,VALID,1008.7,VALID,0,INVALID,135.716,VALID,0,VALID,23.9473,VALID,338,VALID,0.249219,
2014-10-20, 03:21:04,VALID,1008.76,VALID,0,INVALID,135.914,VALID,0,VALID,23.9473,VALID,338,VALID,0.380859,
2014-10-20, 03:22:04,VALID,1008.87,VALID,0,INVALID,136.066,VALID,0,VALID,23.9668,VALID,338,VALID,0.334766,
2014-10-20, 03:23:04,VALID,1008.94,VALID,0,INVALID,136.143,VALID,0,VALID,23.965,VALID,338,VALID,0.333984,
2014-10-20, 03:24:04,VALID,1009,VALID,0,INVALID,136.173,VALID,0,VALID,24.0058,VALID,338,VALID,0,
2014-10-20, 03:25:04,VALID,1009,VALID,0,INVALID,136.249,VALID,0,VALID,24.0253,VALID,338,VALID,0,
2014-10-20, 03:26:04,VALID,1009.01,VALID,0,INVALID,136.295,VALID,0,VALID,24.0448,VALID,338,VALID,0,
2014-10-20, 03:27:04,VALID,1008.99,VALID,0,INVALID,136.318,VALID,0.112112,VALID,24.0643,VALID,338,VALID,0,
2014-10-20, 03:28:04,VALID,1008.98,VALID,0,INVALID,136.371,VALID,0,VALID,24.0448,VALID,338,VALID,0,
2014-10-20, 03:29:04,VALID,1008.98,VALID,0,INVALID,136.394,VALID,0,VALID,24.0643,VALID,338,VALID,0,
2014-10-20, 03:30:04,VALID,1008.95,VALID,0,INVALID,136.463,VALID,0,VALID,24.0643,VALID,338,VALID,0.096875,
2014-10-20, 03:31:04,VALID,1008.92,VALID,0,INVALID,136.47,VALID,0,VALID,24.0643,VALID,338,VALID,0.341797,
2014-10-20, 03:32:04,VALID,1008.87,VALID,0,INVALID,136.493,VALID,0,VALID,24.0837,VALID,338,VALID,0.395703,
2014-10-20, 03:33:04,VALID,1008.78,VALID,0,INVALID,136.539,VALID,0.112112,VALID,24.0429,VALID,338,VALID,0.210938,
2014-10-20, 03:34:04,VALID,1008.69,VALID,0,INVALID,136.577,VALID,0.112112,VALID,24.0448,VALID,338,VALID,0.344141,
2014-10-20, 03:35:04,VALID,1008.6,VALID,0,INVALID,136.6,VALID,0,VALID,24.0448,VALID,338,VALID,0.292578,
2014-10-20, 03:36:04,VALID,1008.56,VALID,0,INVALID,136.615,VALID,0,VALID,24.0235,VALID,338,VALID,0.135547,
2014-10-20, 03:37:04,VALID,1008.52,VALID,0,INVALID,136.608,VALID,0,VALID,24.0058,VALID,338,VALID,0.465234,
2014-10-20, 03:38:04,VALID,1008.49,VALID,0,INVALID,136.722,VALID,0,VALID,23.9863,VALID,338,VALID,0.594922,
2014-10-20, 03:39:04,VALID,1008.52,VALID,0,INVALID,136.768,VALID,0.112112,VALID,23.9455,VALID,338,VALID,0.352734,
2014-10-20, 03:40:04,VALID,1008.51,VALID,0,INVALID,136.837,VALID,0,VALID,23.9455,VALID,338,VALID,0.347656,
2014-10-20, 03:41:04,VALID,1008.48,VALID,0,INVALID,136.859,VALID,0,VALID,23.9455,VALID,338,VALID,0.0117188,